SL-8 R/B

Satellite information

Favourite Embed

Satellite Type and Status

ROCKET BODYIN ORBIT

Key statistics

Satellite SL-8 R/B at a glance.

Uptime

17198

Days in orbit

Revolutions

≈ 12.2

Per day

Orbit

LEO

Low Earth Orbit

Inclination

74.0

Latest

Satellite identification and parameters

Extended collection of information and parameters for SL-8 R/B.

Object identification

Identified? True

Debris? False

Object name: SL-8 R/B

International designator: 1978-056J

Object number (NORAD): 10938

Object ID (CCSDS): 10938

Country: COMMONWEALTH OF INDEPENDENT STATES (CIS)

Current information (Y/N): Y

RCS size: LARGE

Orbital parameters

Period: 117.885 minutes

Inclination: 74.0183 deg

SMA: 7964.026 km

Apoapsis: 1692.086 km

Periapsis: 1479.695 km

RAAN: 166.6413 deg

Eccentricy: 0.0133344

Argument of periapsis: 258.1962 deg

Mean anomaly: 215.9744 deg

Mean motion: 12.21528996 rev/day

Mean motion (dot): -0.00000098 rev/day2

B* drag term: -0.00075941 1/REarth

Two-line elements (TLE)

Creation date: July 6, 2025, 6:05 p.m.

Reference frame: TEME

Reference center: EARTH

Epoch: July 6, 2025, 9:54 a.m. UTC

TLE line 0: 0 SL-8 R/B

TLE line 1: 1 10938U 78056J 25187.41312627 -.00000098 00000-0 -75941-3 0 9994

TLE line 2: 2 10938 74.0183 166.6413 0133344 258.1962 215.9744 12.21528996 99414

Live tracking on map

Real-time ground track for satellite SL-8 R/B.

In-orbit conjunctions

A list of the most updated potential collisions computed for object SL-8 R/B.

Target Orbit TCA Probability of collision Miss distance Type
DELTA 1 DEB SSO 2025-02-12 05:11:56 0.0003666722 322.0 (m) DEBRIS
COSMOS 2499 DEB LEO 2024-10-04 11:16:33 0.002804421 56.0 (m) DEBRIS

Associated space launch

Military communications satellites

SL-8 R/B was lifted into orbit during the mission ‘Kosmos-3M | Strela-1M 145-152’, on board a Kosmos-3M space rocket.

The launch took place on June 7, 1978, 10 p.m. from 132/1 (132L).

For more information about the launch, click the button.

Launch to space Kosmos-3M | Strela-1M 145-152
Kosmos-3M | Strela-1M 145-152

Agency: N/A

Status: Launch Successful

Launch date: June 7, 1978, 10 p.m. UTC

Rocket: Kosmos-3M

Launch pad: 132/1 (132L)

Location: Plesetsk Cosmodrome, Russian Federation

...

Latest news about this satellite

There are no fresh news available about this satellite. Check back as we update our databases every day.


Newsletter sign-up

Weekly statistics, charts and insights to help you stay on top of the space industry.